Raleigh, NC

1:55 PM EDT on September 26, 2016 (GMT -0400)
Raleigh-Durham International

Weather History for KRDU - April, 2011

Change the Weather History Date:

Friday, April 22, 2011

  Actual Average Record
Temperature  
Mean Temperature 55 °F 62 °F  
Max Temperature 58 °F 74 °F 92 °F (1985)
Min Temperature 51 °F 50 °F 32 °F (1978)
Degree Days  
Heating Degree Days 10 5  
Month to date heating degree days 113 157  
Since 1 July heating degree days 3285 3153  
Cooling Degree Days 0 2  
Month to date cooling degree days 31 31  
Year to date cooling degree days 44 43  
Growing Degree Days 4 (Base 50)    
Moisture  
Dew Point 47 °F    
Average Humidity 68    
Maximum Humidity 93    
Minimum Humidity 43    
Precipitation  
Precipitation 0.43 in 0.10 in 1.93 in (1912)
Month to date precipitation 2.43 2.20  
Year to date precipitation 9.59 13.04  
Snow  
Snow 0.00 in 0.00 in 0.00 in ()
Month to date snowfall 0.0 0.1  
Since 1 July snowfall 9.0 6.1  
Snow Depth 0.00 in    
Sea Level Pressure  
Sea Level Pressure 30.28 in    
Wind  
Wind Speed 6 mph (ENE)    
Max Wind Speed 15 mph    
Max Gust Speed 22 mph    
Visibility 5 miles    
Events Rain    
T = Trace of Precipitation, MM = Missing Value Source: NWS Daily Summary

Daily Weather History Graph

Daily Weather History Graph

Search for Another Location

Airport or City:

Trip Planner

Search our weather history database for the weather conditions in past years. The results will help you decide how hot, cold, wet, or windy it might be!

Date:

Astronomy

Apr. 22, 2011 Rise Set
Actual Time 6:33 AM EDT 7:54 PM EDT
Civil Twilight 6:06 AM EDT 8:21 PM EDT
Nautical Twilight 5:34 AM EDT 8:53 PM EDT
Astronomical Twilight 5:01 AM EDT 9:26 PM EDT
Moon 12:13 AM EDT (4/22) 10:10 AM EDT (4/22)
Length of Visible Light 14h 14m
Length of Day
13h 20m
Waning Gibbous, 74% of the Moon is Illuminated
Apr 22
Waning Gibbous
Apr 24
Last Quarter
May 3
New
May 10
First Quarter
May 17
Full

Hourly Weather History & Observations

Time (EDT) Temp. Dew Point Humidity Pressure Visibility Wind Dir Wind Speed Gust Speed Precip Events Conditions
12:51 AM 55.0 °F 46.9 °F 74% 30.29 in 10.0 mi ESE 8.1 mph - N/A   Mostly Cloudy
1:51 AM 55.0 °F 45.0 °F 69% 30.30 in 10.0 mi ESE 5.8 mph - N/A   Overcast
2:51 AM 55.0 °F 44.1 °F 67% 30.28 in 10.0 mi SSE 4.6 mph - 0.00 in   Overcast
3:51 AM 54.0 °F 43.0 °F 66% 30.29 in 10.0 mi SSE 5.8 mph - N/A   Mostly Cloudy
4:51 AM 54.0 °F 43.0 °F 66% 30.29 in 10.0 mi Calm Calm - N/A   Mostly Cloudy
5:51 AM 54.0 °F 43.0 °F 66% 30.31 in 10.0 mi Calm Calm - 0.00 in Rain Light Rain
6:51 AM 51.8 °F 44.6 °F 76% 30.30 in 10.0 mi East 5.8 mph - N/A Rain Light Rain
7:51 AM 52.0 °F 44.1 °F 74% 30.31 in 10.0 mi East 6.9 mph - 0.01 in   Overcast
8:51 AM 53.1 °F 41.0 °F 64% 30.30 in 10.0 mi East 11.5 mph 19.6 mph N/A   Overcast
9:51 AM 55.0 °F 41.0 °F 59% 30.30 in 10.0 mi East 9.2 mph 18.4 mph N/A   Overcast
10:51 AM 57.0 °F 39.9 °F 53% 30.30 in 10.0 mi East 11.5 mph - N/A   Overcast
11:51 AM 57.9 °F 36.0 °F 44% 30.30 in 10.0 mi East 11.5 mph 21.9 mph N/A   Overcast
12:51 PM 54.0 °F 46.9 °F 77% 30.31 in 3.0 mi NNE 6.9 mph - 0.02 in Rain Light Rain
1:51 PM 53.1 °F 48.9 °F 86% 30.31 in 3.0 mi NNE 4.6 mph - 0.11 in Rain Rain
2:51 PM 53.1 °F 48.0 °F 83% 30.29 in 3.0 mi ENE 6.9 mph - 0.11 in Rain Light Rain
3:51 PM 54.0 °F 50.0 °F 86% 30.26 in 3.0 mi ENE 8.1 mph - 0.02 in Rain Light Rain
4:51 PM 54.0 °F 51.1 °F 90% 30.25 in 3.0 mi NNE 3.5 mph - 0.00 in Rain Light Rain
5:16 PM 53.6 °F 51.8 °F 94% 30.26 in 2.0 mi NNE 4.6 mph - 0.00 in Rain Light Rain
5:51 PM 54.0 °F 51.1 °F 90% 30.25 in 2.0 mi ENE 5.8 mph - 0.04 in Rain Light Rain
6:51 PM 54.0 °F 51.1 °F 90% 30.27 in 2.0 mi North 5.8 mph - 0.01 in Rain Light Rain
7:12 PM 53.6 °F 51.8 °F 94% 30.26 in 2.0 mi Variable 6.9 mph - 0.03 in Rain Light Rain
7:51 PM 53.1 °F 50.0 °F 89% 30.25 in 2.0 mi NE 5.8 mph - 0.06 in Rain Light Rain
8:23 PM 53.6 °F 51.8 °F 94% 30.25 in 2.0 mi NNE 5.8 mph - 0.02 in Rain Light Rain
8:43 PM 53.6 °F 51.8 °F 94% 30.25 in 2.0 mi ENE 6.9 mph - 0.02 in Rain Light Rain
8:51 PM 53.1 °F 50.0 °F 89% 30.25 in 2.0 mi ENE 4.6 mph - 0.02 in Rain Light Rain
9:44 PM 53.6 °F 51.8 °F 94% 30.25 in 2.0 mi ENE 3.5 mph - 0.00 in   Light Drizzle
9:51 PM 53.1 °F 51.1 °F 93% 30.25 in 2.0 mi ENE 3.5 mph - 0.01 in   Light Drizzle
10:51 PM 53.1 °F 51.1 °F 93% 30.25 in 2.0 mi NE 4.6 mph - 0.00 in   Light Drizzle
11:37 PM 53.6 °F 51.8 °F 94% 30.24 in 1.0 mi ENE 3.5 mph - 0.00 in   Light Drizzle
11:51 PM 53.1 °F 51.1 °F 93% 30.24 in 1.0 mi East 3.5 mph - 0.00 in   Light Drizzle